Regional Weather Roundup
Issued by NWS

Home | Current Version | Previous Version | Graphics & Text | Print | Product List | Glossary On
Versions: 1 2 3 4 5 6 7 8 9 10 11 12 13 14 15 16 17 18 19 20 21 22 23 24 25 26 27 28 29 30 31 32 33 34 35 36 37 38 39 40 41 42 43 44 45 46 47 48 49 50
000
ASUS44 KMEG 231110
RWRTN
TENNESSEE HOURLY STATE WEATHER ROUNDUP
NATIONAL WEATHER SERVICE MEMPHIS TN
600 AM CDT SAT SEP 23 2017

TNZ002-004-019-021-049-052-054-088>092-231200-
WEST TENNESSEE

CITY           SKY/WX    TMP DP  RH WIND       PRES   REMARKS
MEMPHIS INTL   CLEAR     74  69  85 CALM      30.00R
NWS MEMPHIS      N/A     69 N/A N/A MISG        N/A
JACKSON        FOG       65  65 100 CALM      30.02R VSB 1/4
DYERSBURG      CLEAR     69  67  93 NE3       30.02R
SOMERVILLE     CLEAR     66  66 100 CALM      30.00R FOG
COVINGTON      CLEAR     66  64  94 CALM      30.00S FOG
BOLIVAR        PTCLDY    64  64 100 CALM      30.01R
PARIS          CLEAR     66  66 100 CALM      30.01S
HUNTINGDON     PTCLDY    68  66  94 CALM      30.01R
LEXINGTON      CLEAR     66  64  94 CALM      30.01S FOG
SELMER         CLEAR     68  66  94 CALM      30.01R
SAVANNAH       CLEAR     64  64 100 CALM      30.00R
$$

TNZ008-025-027-028-033-062-065-066-231200-
NORTH MIDDLE TENNESSEE

CITY           SKY/WX    TMP DP  RH WIND       PRES   REMARKS
NASHVILLE      CLEAR     69  67  93 CALM      30.04R
PORTLAND       MOCLDY    66  66 100 CALM      30.04R
CLARKSVILLE    FOG       64  62  93 CALM      30.04R VSB 1/4
SMYRNA           N/A    N/A N/A N/A MISG        N/A  HAZE
COOKEVILLE     FOG       61  61 100 CALM      30.06R VSB 1/2
GALLATIN       PTCLDY    66  64  94 CALM      30.07R
CROSSVILLE     CLEAR     62  61  96 CALM      30.11R FOG
$$

TNZ061-075-076-078-094-096-097-231200-
SOUTH MIDDLE TENNESSEE

CITY           SKY/WX    TMP DP  RH WIND       PRES   REMARKS
FAYETTEVILLE   CLEAR     68  66  94 CALM      30.04R
TULLAHOMA      CLEAR     63  61  94 CALM      30.07R
WINCHESTER     CLEAR     64  64 100 CALM      30.06R
MCMINNVILLE    CLEAR     63  63 100 CALM      30.06S
COLUMBIA       CLEAR     66 N/A N/A CALM      30.02R
SHELBYVILLE    CLEAR     66  66 100 CALM      30.05R
$$

TNZ017-018-042-046-047-231200-
NORTHEAST TENNESSEE

CITY           SKY/WX    TMP DP  RH WIND       PRES   REMARKS
TRI CITIES     MOCLDY    62  62 100 CALM      30.11R
ELIZABETHTON   PTCLDY    64  63  94 NE3       30.12R
$$

TNZ012-013-036-069-073-074-231200-
CENTRAL EAST TENNESSEE

CITY           SKY/WX    TMP DP  RH WIND       PRES   REMARKS
KNOXVILLE      MOCLDY    66  64  93 CALM      30.06R
OAK RIDGE      PTCLDY    67  64  90 CALM      30.08R
DOWNTOWN KNOXV CLEAR     64  64 100 CALM      30.06R FOG
GATLINBURG     CLEAR     63  61  94 CALM      30.07R
MORRISTOWN     CLEAR     66  63  88 CALM      30.08R
JACKSBORO      MOCLDY    63  63 100 CALM      30.12R FOG
$$

TNZ083-085-099-231200-
SOUTHEAST TENNESSEE

CITY           SKY/WX    TMP DP  RH WIND       PRES   REMARKS
CHATTANOOGA    PTCLDY    69  66  90 CALM      30.05S
DAYTON         MOSUNNY   64  64 100 CALM      30.05S
$$

SKY/WX REPORTED AS FAIR MEANS FEW OR NO CLOUDS BELOW
12 THOUSAND FEET.





USA.gov is the U.S. government's official web portal to all federal, state and local government web resources and services.